• In Belarus
  • List of Countries
  • For 7 days
  • Water Temperature
  • Satellite Maps
  • Weather Map
  • Weather Widgets
  • user-avatar
    Login

    Hourly Weather Sofia

    Today, 19 July, Thursday

    Time Temperature Precipitation Wind Pressure Humidity
    00:00 +17°C° 0 mm 2 mps 706 mmHg 82%
    01:00 +16°C° 0 mm 2 mps 706 mmHg 83%
    02:00 +16°C° 0 mm 2 mps 706 mmHg 86%
    03:00 +16°C° 0 mm 2 mps 706 mmHg 85%
    04:00 +16°C° 0 mm 3 mps 706 mmHg 85%
    05:00 +16°C° 0 mm 3 mps 706 mmHg 84%
    06:00 +17°C° 0.1 mm 3 mps 706 mmHg 84%
    07:00 +17°C° 0.1 mm 3 mps 706 mmHg 83%
    08:00 +18°C° 0.1 mm 2 mps 706 mmHg 83%
    09:00 +18°C° 0.1 mm 3 mps 706 mmHg 82%
    10:00 +19°C° 0.1 mm 3 mps 706 mmHg 80%
    11:00 +19°C° 0.1 mm 3 mps 707 mmHg 79%
    12:00 +20°C° 0.1 mm 3 mps 707 mmHg 77%
    13:00 +20°C° 0.1 mm 3 mps 707 mmHg 75%
    14:00 +21°C° 0.1 mm 3 mps 707 mmHg 73%
    15:00 +21°C° 0 mm 3 mps 707 mmHg 71%
    16:00 +22°C° 0 mm 3 mps 707 mmHg 70%
    17:00 +22°C° 0 mm 4 mps 707 mmHg 68%
    18:00 +21°C° 0 mm 3 mps 707 mmHg 73%
    19:00 +20°C° 0 mm 3 mps 707 mmHg 78%
    20:00 +19°C° 0 mm 2 mps 707 mmHg 83%
    21:00 +18°C° 0 mm 2 mps 707 mmHg 86%
    22:00 +18°C° 0 mm 2 mps 707 mmHg 88%
    23:00 +17°C° 0 mm 2 mps 707 mmHg 91%

    Tomorrow, 20 July, Friday

    Time Temperature Precipitation Wind Pressure Humidity
    00:00 +17°C° 0 mm 2 mps 707 mmHg 92%
    01:00 +17°C° 0 mm 2 mps 707 mmHg 93%
    02:00 +17°C° 0 mm 2 mps 708 mmHg 93%
    03:00 +17°C° 0 mm 2 mps 708 mmHg 94%
    04:00 +17°C° 0 mm 2 mps 708 mmHg 94%
    05:00 +17°C° 0 mm 2 mps 708 mmHg 94%
    06:00 +18°C° 0 mm 2 mps 708 mmHg 88%
    07:00 +20°C° 0 mm 2 mps 708 mmHg 82%
    08:00 +21°C° 0 mm 2 mps 708 mmHg 76%
    09:00 +24°C° 0 mm 3 mps 709 mmHg 71%
    10:00 +25°C° 0 mm 3 mps 709 mmHg 65%
    11:00 +26°C° 0 mm 3 mps 709 mmHg 60%
    12:00 +27°C° 0 mm 3 mps 709 mmHg 57%
    13:00 +27°C° 0 mm 3 mps 709 mmHg 55%
    14:00 +28°C° 0 mm 3 mps 709 mmHg 52%
    15:00 +28°C° 0 mm 3 mps 709 mmHg 53%
    16:00 +28°C° 0 mm 3 mps 709 mmHg 53%
    17:00 +28°C° 0 mm 3 mps 708 mmHg 54%
    18:00 +26°C° 0.1 mm 3 mps 708 mmHg 60%
    19:00 +24°C° 0.1 mm 2 mps 708 mmHg 67%
    20:00 +21°C° 0.1 mm 2 mps 708 mmHg 74%
    21:00 +20°C° 0 mm 2 mps 709 mmHg 77%
    22:00 +18°C° 0 mm 2 mps 709 mmHg 80%
    23:00 +17°C° 0 mm 2 mps 709 mmHg 84%

    Day after tomorrow, 21 July, Saturday

    Time Temperature Precipitation Wind Pressure Humidity
    00:00 +18°C° 0 mm 1 mps 709 mmHg 84%
    01:00 +16°C° 0 mm 1 mps 709 mmHg 83%
    02:00 +16°C° 0 mm 1 mps 709 mmHg 83%
    03:00 +16°C° 0 mm 1 mps 709 mmHg 83%
    04:00 +16°C° 0 mm 1 mps 709 mmHg 83%
    05:00 +16°C° 0 mm 1 mps 709 mmHg 83%
    06:00 +18°C° 0 mm 2 mps 709 mmHg 76%
    07:00 +20°C° 0 mm 2 mps 709 mmHg 69%
    08:00 +23°C° 0 mm 2 mps 710 mmHg 63%
    09:00 +25°C° 0 mm 2 mps 710 mmHg 57%
    10:00 +27°C° 0 mm 2 mps 710 mmHg 50%
    11:00 +29°C° 0 mm 3 mps 710 mmHg 44%
    12:00 +30°C° 0 mm 3 mps 710 mmHg 41%
    13:00 +30°C° 0 mm 3 mps 710 mmHg 39%
    14:00 +31°C° 0 mm 3 mps 710 mmHg 36%
    15:00 +31°C° 0 mm 3 mps 709 mmHg 36%
    16:00 +31°C° 0 mm 3 mps 709 mmHg 35%
    17:00 +31°C° 0 mm 3 mps 709 mmHg 35%
    18:00 +28°C° 0 mm 2 mps 709 mmHg 42%
    19:00 +26°C° 0 mm 2 mps 709 mmHg 49%
    20:00 +23°C° 0 mm 1 mps 709 mmHg 56%
    21:00 +22°C° 0 mm 1 mps 709 mmHg 56%
    22:00 +21°C° 0 mm 1 mps 709 mmHg 57%
    23:00 +21°C° 0 mm 1 mps 709 mmHg 57%

    22 July, Sunday

    Time Temperature Precipitation Wind Pressure Humidity
    00:00 +20°C° 0 mm 1 mps 709 mmHg 58%
    01:00 +20°C° 0 mm 1 mps 709 mmHg 59%
    02:00 +20°C° 0 mm 1 mps 709 mmHg 60%
    03:00 +19°C° 0 mm 1 mps 709 mmHg 62%
    04:00 +19°C° 0 mm 1 mps 708 mmHg 64%
    05:00 +19°C° 0 mm 1 mps 708 mmHg 65%
    06:00 +21°C° 0 mm 1 mps 709 mmHg 61%
    07:00 +24°C° 0 mm 1 mps 709 mmHg 57%
    08:00 +26°C° 0 mm 1 mps 709 mmHg 52%
    09:00 +28°C° 0 mm 1 mps 709 mmHg 46%
    10:00 +30°C° 0 mm 2 mps 709 mmHg 40%
    11:00 +32°C° 0 mm 2 mps 709 mmHg 34%
    12:00 +34°C° 0 mm 2 mps 709 mmHg 31%
    13:00 +35°C° 0 mm 2 mps 708 mmHg 29%
    14:00 +36°C° 0 mm 2 mps 708 mmHg 27%
    15:00 +35°C° 0 mm 2 mps 707 mmHg 29%
    16:00 +34°C° 0 mm 2 mps 707 mmHg 32%
    17:00 +33°C° 0 mm 1 mps 707 mmHg 34%
    18:00 +30°C° 0.1 mm 1 mps 706 mmHg 40%
    19:00 +28°C° 0.1 mm 1 mps 706 mmHg 47%
    20:00 +25°C° 0.1 mm 1 mps 706 mmHg 54%
    21:00 +24°C° 0.1 mm 1 mps 706 mmHg 57%
    22:00 +23°C° 0.1 mm 1 mps 706 mmHg 61%
    23:00 +22°C° 0.1 mm 1 mps 706 mmHg 64%

    23 July, Monday

    Time Temperature Precipitation Wind Pressure Humidity
    00:00 +22°C° 0 mm 1 mps 706 mmHg 66%
    01:00 +21°C° 0 mm 1 mps 705 mmHg 67%
    02:00 +20°C° 0 mm 1 mps 705 mmHg 69%
    03:00 +20°C° 0 mm 1 mps 705 mmHg 70%
    04:00 +20°C° 0 mm 1 mps 705 mmHg 71%
    05:00 +19°C° 0 mm 1 mps 704 mmHg 72%
    06:00 +21°C° 0 mm 1 mps 704 mmHg 66%
    07:00 +24°C° 0 mm 1 mps 705 mmHg 59%
    08:00 +26°C° 0 mm 1 mps 705 mmHg 53%
    09:00 +28°C° 0 mm 2 mps 705 mmHg 47%
    10:00 +30°C° 0 mm 2 mps 705 mmHg 41%
    11:00 +31°C° 0 mm 2 mps 705 mmHg 35%
    12:00 +31°C° 0.1 mm 2 mps 704 mmHg 37%
    13:00 +30°C° 0.1 mm 2 mps 704 mmHg 39%
    14:00 +30°C° 0.1 mm 3 mps 703 mmHg 41%
    15:00 +28°C° 1.8 mm 3 mps 703 mmHg 50%
    16:00 +27°C° 1.8 mm 3 mps 703 mmHg 59%
    17:00 +25°C° 1.8 mm 3 mps 703 mmHg 68%
    18:00 +23°C° 1.2 mm 2 mps 703 mmHg 73%
    19:00 +21°C° 1.2 mm 2 mps 703 mmHg 78%
    20:00 +20°C° 1.2 mm 2 mps 703 mmHg 83%
    21:00 +19°C° 0.4 mm 2 mps 703 mmHg 85%
    22:00 +19°C° 0.4 mm 2 mps 704 mmHg 87%
    23:00 +19°C° 0.4 mm 1 mps 704 mmHg 90%

    24 July, Tuesday

    Time Temperature Precipitation Wind Pressure Humidity
    00:00 +18°C° 0 mm 2 mps 704 mmHg 91%
    01:00 +17°C° 0 mm 2 mps 704 mmHg 91%
    02:00 +17°C° 0 mm 2 mps 704 mmHg 92%
    03:00 +18°C° 0.1 mm 1 mps 704 mmHg 93%
    04:00 +18°C° 0.1 mm 1 mps 704 mmHg 93%
    05:00 +18°C° 0.1 mm 1 mps 704 mmHg 93%
    06:00 +18°C° 0.3 mm 1 mps 704 mmHg 91%
    07:00 +19°C° 0.3 mm 1 mps 705 mmHg 89%
    08:00 +19°C° 0.3 mm 2 mps 705 mmHg 87%
    09:00 +20°C° 0.5 mm 2 mps 705 mmHg 84%
    10:00 +20°C° 0.5 mm 2 mps 705 mmHg 81%
    11:00 +21°C° 0.5 mm 2 mps 705 mmHg 78%
    12:00 +23°C° 0.5 mm 2 mps 705 mmHg 76%
    13:00 +24°C° 0.5 mm 2 mps 705 mmHg 74%
    14:00 +25°C° 0.5 mm 3 mps 706 mmHg 71%
    15:00 +24°C° 1 mm 2 mps 706 mmHg 74%
    16:00 +24°C° 1 mm 2 mps 706 mmHg 76%
    17:00 +24°C° 1 mm 2 mps 706 mmHg 79%
    18:00 +23°C° 0.6 mm 2 mps 706 mmHg 83%
    19:00 +21°C° 0.6 mm 1 mps 706 mmHg 87%
    20:00 +20°C° 0.6 mm 1 mps 706 mmHg 91%
    21:00 +20°C° 0.3 mm 1 mps 707 mmHg 92%
    22:00 +20°C° 0.3 mm 1 mps 707 mmHg 93%
    23:00 +19°C° 0.3 mm 1 mps 707 mmHg 95%
    Show more